Powrót do katalogu

STARLINK-31402

AktywnyŁącznośćVLEO
NORAD 59320·PAYLOAD·🇺🇸 United States

Wystrzelony Mar 25, 2024 z Cape Canaveral Space Force Station

Loading…

Następne Przeloty (najbliższe 24 godziny)

TLE

ŚwieżeSource: CelesTrak SupGP

Epoka: Sep 15, 2026, 02:59 UTC

1 59320C 24057A   26258.12479167  .00167980  00000+0  39567-2 0  2587
2 59320  42.9957 142.7600 0015415 219.9595  55.1417 15.40873099    13

Śledź STARLINK-31402 w czasie rzeczywistym z AllMySat

Download on the App Store